• In Kazakhstan
  • List of Countries
  • For 7 days
  • Water Temperature
  • Satellite Maps
  • Weather Map
  • News
  • Weather Widgets
  • user-avatar
    Login

    Hourly Weather Malatya

    Today, 20 September, Wednesday

    Time Temperature Precipitation Wind Pressure Humidity
    00:00 +23°C° 0 mm 0 mps 672 mmHg 29%
    01:00 +22°C° 0 mm 0 mps 672 mmHg 30%
    02:00 +22°C° 0 mm 0 mps 671 mmHg 31%
    03:00 +21°C° 0 mm 0 mps 671 mmHg 32%
    04:00 +21°C° 0 mm 0 mps 671 mmHg 32%
    05:00 +23°C° 0 mm 1 mps 671 mmHg 32%
    06:00 +22°C° 0 mm 1 mps 671 mmHg 32%
    07:00 +25°C° 0 mm 1 mps 672 mmHg 28%
    08:00 +27°C° 0 mm 1 mps 672 mmHg 24%
    09:00 +29°C° 0 mm 2 mps 673 mmHg 21%
    10:00 +30°C° 0 mm 2 mps 673 mmHg 19%
    11:00 +31°C° 0 mm 2 mps 673 mmHg 18%
    12:00 +34°C° 0 mm 3 mps 673 mmHg 16%
    13:00 +34°C° 0 mm 3 mps 673 mmHg 15%
    14:00 +35°C° 0 mm 3 mps 672 mmHg 14%
    15:00 +35°C° 0 mm 4 mps 672 mmHg 13%
    16:00 +35°C° 0 mm 3 mps 672 mmHg 14%
    17:00 +34°C° 0 mm 3 mps 671 mmHg 14%
    18:00 +32°C° 0 mm 2 mps 671 mmHg 15%
    19:00 +30°C° 0 mm 2 mps 671 mmHg 18%
    20:00 +28°C° 0 mm 1 mps 671 mmHg 20%
    21:00 +27°C° 0 mm 1 mps 671 mmHg 22%
    22:00 +26°C° 0 mm 1 mps 671 mmHg 23%
    23:00 +25°C° 0 mm 1 mps 671 mmHg 24%

    Tomorrow, 21 September, Thursday

    Time Temperature Precipitation Wind Pressure Humidity
    00:00 +25°C° 0 mm 1 mps 670 mmHg 25%
    01:00 +24°C° 0 mm 1 mps 670 mmHg 26%
    02:00 +22°C° 0 mm 0 mps 670 mmHg 27%
    03:00 +21°C° 0 mm 0 mps 670 mmHg 28%
    04:00 +23°C° 0 mm 1 mps 670 mmHg 29%
    05:00 +22°C° 0 mm 1 mps 670 mmHg 29%
    06:00 +22°C° 0 mm 1 mps 670 mmHg 30%
    07:00 +24°C° 0 mm 1 mps 671 mmHg 27%
    08:00 +26°C° 0 mm 1 mps 671 mmHg 24%
    09:00 +28°C° 0 mm 1 mps 672 mmHg 21%
    10:00 +29°C° 0 mm 1 mps 672 mmHg 20%
    11:00 +30°C° 0 mm 1 mps 672 mmHg 19%
    12:00 +31°C° 0 mm 2 mps 672 mmHg 18%
    13:00 +32°C° 0 mm 2 mps 671 mmHg 17%
    14:00 +32°C° 0 mm 2 mps 671 mmHg 16%
    15:00 +34°C° 0 mm 2 mps 671 mmHg 15%
    16:00 +32°C° 0 mm 1 mps 670 mmHg 16%
    17:00 +31°C° 0 mm 1 mps 670 mmHg 17%
    18:00 +31°C° 0 mm 1 mps 670 mmHg 18%
    19:00 +29°C° 0 mm 1 mps 670 mmHg 20%
    20:00 +28°C° 0 mm 1 mps 670 mmHg 22%
    21:00 +27°C° 0 mm 1 mps 670 mmHg 24%
    22:00 +26°C° 0 mm 1 mps 670 mmHg 27%
    23:00 +25°C° 0 mm 1 mps 670 mmHg 29%

    Day after tomorrow, 22 September, Friday

    Time Temperature Precipitation Wind Pressure Humidity
    00:00 +24°C° 0 mm 1 mps 670 mmHg 31%
    01:00 +24°C° 0 mm 1 mps 670 mmHg 32%
    02:00 +23°C° 0 mm 1 mps 669 mmHg 34%
    03:00 +23°C° 0 mm 1 mps 669 mmHg 35%
    04:00 +21°C° 0 mm 0 mps 669 mmHg 36%
    05:00 +20°C° 0 mm 0 mps 669 mmHg 37%
    06:00 +20°C° 0 mm 0 mps 669 mmHg 38%
    07:00 +24°C° 0 mm 1 mps 670 mmHg 34%
    08:00 +26°C° 0 mm 1 mps 670 mmHg 31%
    09:00 +27°C° 0 mm 1 mps 671 mmHg 27%
    10:00 +29°C° 0 mm 2 mps 671 mmHg 24%
    11:00 +30°C° 0 mm 3 mps 671 mmHg 20%
    12:00 +31°C° 0 mm 3 mps 671 mmHg 17%
    13:00 +33°C° 0 mm 4 mps 671 mmHg 16%
    14:00 +33°C° 0 mm 4 mps 671 mmHg 14%
    15:00 +33°C° 0 mm 5 mps 670 mmHg 13%
    16:00 +32°C° 0 mm 4 mps 670 mmHg 15%
    17:00 +30°C° 0 mm 4 mps 670 mmHg 17%
    18:00 +29°C° 0 mm 4 mps 670 mmHg 19%
    19:00 +27°C° 0 mm 3 mps 670 mmHg 24%
    20:00 +26°C° 0 mm 3 mps 670 mmHg 30%
    21:00 +24°C° 0 mm 2 mps 670 mmHg 36%
    22:00 +23°C° 0 mm 2 mps 670 mmHg 40%
    23:00 +21°C° 0 mm 2 mps 670 mmHg 45%

    23 September, Saturday

    Time Temperature Precipitation Wind Pressure Humidity
    00:00 +21°C° 0 mm 2 mps 670 mmHg 49%
    01:00 +20°C° 0 mm 2 mps 670 mmHg 52%
    02:00 +19°C° 0 mm 2 mps 670 mmHg 55%
    03:00 +19°C° 0 mm 2 mps 670 mmHg 57%
    04:00 +18°C° 0 mm 2 mps 671 mmHg 59%
    05:00 +18°C° 0 mm 2 mps 671 mmHg 61%
    06:00 +18°C° 0 mm 2 mps 671 mmHg 63%
    07:00 +19°C° 0 mm 2 mps 671 mmHg 58%
    08:00 +20°C° 0 mm 2 mps 672 mmHg 54%
    09:00 +22°C° 0 mm 1 mps 672 mmHg 49%
    10:00 +24°C° 0 mm 1 mps 672 mmHg 43%
    11:00 +25°C° 0 mm 1 mps 672 mmHg 37%
    12:00 +26°C° 0 mm 1 mps 673 mmHg 32%
    13:00 +27°C° 0 mm 1 mps 672 mmHg 29%
    14:00 +28°C° 0 mm 1 mps 672 mmHg 26%
    15:00 +28°C° 0 mm 1 mps 672 mmHg 23%
    16:00 +28°C° 0 mm 1 mps 672 mmHg 24%
    17:00 +28°C° 0 mm 1 mps 672 mmHg 24%
    18:00 +27°C° 0 mm 1 mps 672 mmHg 25%
    19:00 +26°C° 0 mm 1 mps 672 mmHg 27%
    20:00 +25°C° 0 mm 1 mps 672 mmHg 30%
    21:00 +24°C° 0 mm 1 mps 672 mmHg 33%
    22:00 +23°C° 0 mm 1 mps 672 mmHg 34%
    23:00 +22°C° 0 mm 1 mps 672 mmHg 36%

    24 September, Sunday

    Time Temperature Precipitation Wind Pressure Humidity
    00:00 +22°C° 0 mm 1 mps 672 mmHg 38%
    01:00 +21°C° 0 mm 1 mps 672 mmHg 39%
    02:00 +18°C° 0 mm 0 mps 672 mmHg 41%
    03:00 +18°C° 0 mm 0 mps 672 mmHg 43%
    04:00 +19°C° 0 mm 1 mps 672 mmHg 44%
    05:00 +19°C° 0 mm 1 mps 672 mmHg 46%
    06:00 +18°C° 0 mm 1 mps 672 mmHg 47%
    07:00 +20°C° 0 mm 1 mps 673 mmHg 41%
    08:00 +22°C° 0 mm 1 mps 673 mmHg 36%
    09:00 +24°C° 0 mm 2 mps 674 mmHg 31%
    10:00 +25°C° 0 mm 2 mps 674 mmHg 27%
    11:00 +26°C° 0 mm 2 mps 674 mmHg 23%
    12:00 +27°C° 0 mm 3 mps 674 mmHg 18%
    13:00 +28°C° 0 mm 3 mps 673 mmHg 17%
    14:00 +28°C° 0 mm 3 mps 673 mmHg 15%
    15:00 +29°C° 0 mm 3 mps 673 mmHg 13%
    16:00 +28°C° 0 mm 2 mps 673 mmHg 14%
    17:00 +28°C° 0 mm 2 mps 673 mmHg 15%
    18:00 +27°C° 0 mm 2 mps 673 mmHg 16%
    19:00 +25°C° 0 mm 2 mps 673 mmHg 18%
    20:00 +24°C° 0 mm 1 mps 673 mmHg 20%
    21:00 +23°C° 0 mm 1 mps 673 mmHg 22%
    22:00 +22°C° 0 mm 1 mps 672 mmHg 24%
    23:00 +22°C° 0 mm 1 mps 672 mmHg 26%

    25 September, Monday

    Time Temperature Precipitation Wind Pressure Humidity
    00:00 +19°C° 0 mm 0 mps 672 mmHg 28%
    01:00 +19°C° 0.1 mm 0 mps 672 mmHg 30%
    02:00 +19°C° 0.1 mm 0 mps 672 mmHg 33%
    03:00 +19°C° 0.1 mm 0 mps 672 mmHg 35%
    04:00 +20°C° 0.2 mm 1 mps 672 mmHg 37%
    05:00 +20°C° 0.2 mm 1 mps 672 mmHg 39%
    06:00 +20°C° 0.2 mm 1 mps 672 mmHg 40%
    07:00 +21°C° 0 mm 1 mps 672 mmHg 37%
    08:00 +23°C° 0 mm 1 mps 673 mmHg 33%
    09:00 +25°C° 0 mm 2 mps 673 mmHg 30%
    10:00 +26°C° 0 mm 2 mps 673 mmHg 28%
    11:00 +28°C° 0 mm 3 mps 673 mmHg 27%
    12:00 +29°C° 0 mm 3 mps 673 mmHg 25%
    13:00 +30°C° 0 mm 3 mps 673 mmHg 24%
    14:00 +30°C° 0 mm 4 mps 673 mmHg 23%
    15:00 +32°C° 0 mm 4 mps 672 mmHg 22%
    16:00 +30°C° 0 mm 3 mps 672 mmHg 23%
    17:00 +30°C° 0 mm 3 mps 672 mmHg 24%
    18:00 +29°C° 0 mm 2 mps 672 mmHg 24%
    19:00 +28°C° 0 mm 2 mps 672 mmHg 26%
    20:00 +27°C° 0 mm 2 mps 672 mmHg 28%
    21:00 +26°C° 0 mm 2 mps 672 mmHg 30%
    22:00 +25°C° 0 mm 2 mps 672 mmHg 31%
    23:00 +25°C° 0 mm 1 mps 672 mmHg 32%
    Show more